PA3DZX-13 Weather Reports


Display with metric or nautical units.
time (UTC)temp
F
wind
direction
speed
MPH
gust
MPH
rain 1hr
in
rain 24hr
in
rain mn
in
humidity
%
barometer
mb
20260508035601 35 68 2.0 4.0 0.00 0.00 0.00 99 1018.4
20260508034101 35 55 2.0 4.0 0.00 0.00 0.00 99 1018.4
20260508032601 35 42 2.0 2.0 0.00 0.00 0.00 99 1018.4
20260508031100 35 42 2.0 2.0 0.00 0.00 0.00 99 1018.4
20260508025559 35 57 2.0 4.0 0.00 0.00 0.00 99 1018.4
20260508024059 35 42 2.0 4.0 0.00 0.00 0.00 99 1018.4
20260508022559 35 41 2.0 4.0 0.00 0.00 0.00 99 1018.6
20260508021059 35 47 2.0 4.0 0.00 0.00 0.00 98 1018.4
20260508015559 33 63 2.0 4.0 0.00 0.00 0.00 98 1018.5
20260508014058 35 67 2.0 4.0 0.00 0.00 0.00 99 1018.5
20260508012557 35 73 4.0 6.0 0.00 0.00 0.00 99 1018.5
20260508011057 35 69 4.0 4.0 0.00 0.00 0.00 98 1018.6
20260508005557 35 44 2.0 4.0 0.00 0.00 0.00 99 1018.6
20260508004057 37 51 2.0 2.0 0.00 0.00 0.00 99 1018.7
20260508002557 37 52 0.0 2.0 0.00 0.00 0.00 99 1018.5
20260508001057 35 52 0.0 2.0 0.00 0.00 0.00 98 1018.6
20260507235557 37 42 2.0 2.0 0.00 0.00 0.00 99 1018.6
20260507234057 35 36 0.0 2.0 0.00 0.00 0.00 99 1018.6
20260507232557 35 29 2.0 2.0 0.00 0.00 0.00 98 1018.6
20260507231057 37 35 2.0 2.0 0.00 0.00 0.00 99 1018.6
20260507225557 37 50 2.0 2.0 0.00 0.00 0.00 98 1018.6
20260507224057 39 35 2.0 2.0 0.00 0.00 0.00 99 1018.6
20260507222557 41 108 0.0 2.0 0.00 0.00 0.00 99 1018.4
20260507221056 39 105 0.0 2.0 0.00 0.00 0.00 95 1018.4
20260507215555 42 94 2.0 4.0 0.00 0.00 0.00 96 1018.3
20260507214055 42 88 2.0 4.0 0.00 0.00 0.00 92 1018.3
20260507212555 42 88 2.0 4.0 0.00 0.00 0.00 91 1018.2
20260507211056 44 87 2.0 4.0 0.00 0.00 0.00 88 1018.2
20260507205555 46 84 4.0 6.0 0.00 0.00 0.00 87 1018.0
20260507204055 46 81 4.0 6.0 0.00 0.00 0.00 86 1018.0
20260507202555 46 83 4.0 4.0 0.00 0.00 0.00 85 1017.8
20260507201054 46 85 2.0 4.0 0.00 0.00 0.00 84 1017.8
20260507195554 48 83 4.0 6.0 0.00 0.00 0.00 81 1017.7
20260507194053 48 83 4.0 8.0 0.00 0.00 0.00 79 1017.6
20260507192553 48 80 4.0 8.0 0.00 0.00 0.00 78 1017.4
20260507191053 50 82 4.0 6.0 0.00 0.00 0.00 77 1017.4
20260507185553 50 82 4.0 8.0 0.00 0.00 0.00 74 1017.2
20260507184053 51 83 4.0 11.0 0.00 0.00 0.00 72 1017.1
20260507182553 53 69 6.0 11.0 0.00 0.00 0.00 68 1017.1
20260507181052 53 61 6.0 11.0 0.00 0.00 0.00 68 1017.0
20260507175552 53 63 6.0 13.0 0.00 0.00 0.00 64 1016.9
20260507174052 55 79 6.0 13.0 0.00 0.00 0.00 65 1016.8
20260507172551 55 70 8.0 13.0 0.00 0.00 0.00 66 1016.7
20260507171050 55 92 8.0 13.0 0.00 0.00 0.00 66 1016.6
20260507165551 57 93 8.0 13.0 0.00 0.00 0.00 63 1016.5
20260507164050 55 85 8.0 13.0 0.00 0.00 0.00 64 1016.4
20260507162551 57 79 6.0 15.0 0.00 0.00 0.00 60 1016.2
20260507161050 57 103 8.0 15.0 0.00 0.00 0.00 63 1016.1
20260507155550 59 112 6.0 11.0 0.00 0.00 0.00 60 1016.0
20260507154049 57 107 8.0 13.0 0.00 0.00 0.00 62 1016.0
20260507152549 57 89 8.0 15.0 0.00 0.00 0.00 61 1015.9
20260507151049 57 69 6.0 15.0 0.00 0.00 0.00 56 1015.8
20260507145548 60 69 4.0 11.0 0.00 0.00 0.00 52 1015.8
20260507144048 60 70 2.0 8.0 0.00 0.00 0.00 46 1015.7
20260507142548 59 11 6.0 11.0 0.00 0.00 0.00 51 1015.9
20260507141047 60 47 4.0 11.0 0.00 0.00 0.00 47 1015.9
20260507135547 59 56 6.0 11.0 0.00 0.00 0.00 52 1015.9
20260507134047 59 65 4.0 11.0 0.00 0.00 0.00 52 1016.0
20260507132547 59 18 6.0 15.0 0.00 0.00 0.00 54 1016.0
20260507131046 59 11 8.0 15.0 0.00 0.00 0.00 54 1015.9
20260507125546 59 33 6.0 13.0 0.00 0.00 0.00 53 1015.9
20260507124046 59 26 6.0 15.0 0.00 0.00 0.00 55 1015.9
20260507122546 59 8 8.0 15.0 0.00 0.00 0.00 55 1016.0
20260507121045 57 7 4.0 13.0 0.00 0.00 0.00 57 1016.0
20260507115545 57 12 6.0 11.0 0.00 0.00 0.00 59 1015.9
20260507114044 57 32 6.0 13.0 0.00 0.00 0.00 61 1016.0
20260507112544 57 10 6.0 13.0 0.00 0.00 0.00 62 1016.0
20260507111043 57 30 6.0 13.0 0.00 0.00 0.00 59 1016.0
20260507105544 55 344 6.0 13.0 0.00 0.00 0.00 63 1015.9
20260507104043 55 19 6.0 11.0 0.00 0.00 0.00 65 1015.8
20260507102543 55 36 6.0 13.0 0.00 0.00 0.00 65 1015.7
20260507101042 55 21 8.0 13.0 0.00 0.00 0.00 65 1015.6
20260507095542 53 22 6.0 13.0 0.00 0.00 0.00 65 1015.6
20260507094042 53 14 6.0 11.0 0.00 0.00 0.00 67 1015.5
20260507092543 53 14 6.0 11.0 0.00 0.00 0.00 69 1015.4
20260507091042 53 0 6.0 11.0 0.00 0.00 0.00 70 1015.3
20260507085541 53 356 6.0 11.0 0.00 0.00 0.00 73 1015.2
20260507084040 51 359 6.0 8.0 0.00 0.00 0.00 74 1015.2
20260507082540 51 8 4.0 11.0 0.00 0.00 0.00 74 1015.1
20260507081039 51 2 6.0 11.0 0.00 0.00 0.00 78 1015.0
20260507075540 50 10 4.0 11.0 0.00 0.00 0.00 78 1014.9
20260507074039 50 342 4.0 8.0 0.00 0.00 0.00 83 1014.8
20260507072539 48 350 4.0 6.0 0.00 0.00 0.00 82 1014.8
20260507071038 48 5 4.0 6.0 0.00 0.00 0.00 82 1014.8
20260507065538 46 24 4.0 6.0 0.00 0.00 0.00 83 1014.7
20260507064037 46 19 4.0 6.0 0.00 0.00 0.00 86 1014.6
20260507062536 44 2 4.0 6.0 0.00 0.00 0.00 88 1014.4
20260507061035 42 330 0.0 2.0 0.00 0.00 0.00 92 1014.3
20260507055535 41 42 0.0 2.0 0.00 0.00 0.00 96 1014.2
20260507054035 41 350 0.0 2.0 0.00 0.00 0.00 98 1014.1
20260507052534 39 315 0.0 2.0 0.00 0.00 0.00 99 1014.0
20260507051033 37 314 0.0 2.0 0.00 0.00 0.00 99 1014.0
20260507045533 37 306 0.0 2.0 0.00 0.00 0.00 99 1013.7
20260507044032 37 306 0.0 0.0 0.00 0.00 0.00 99 1013.4
20260507042533 37 306 0.0 2.0 0.00 0.00 0.00 99 1013.4
20260507041031 37 306 0.0 2.0 0.00 0.00 0.00 99 1013.4